Theta_e
276 276 276 276 276 276 277 277 277 277 277 277 277 276 276 275 273 272 272 274 275 277 280 278 278 280 280 280 282 282 282 283 284 282 282 282 282 284 287 288 289 289 290 290 290 290 291 292 293 293 294 295 296 296 297 298 298 300 300 301 303 304 306 307 308 308 308 309 310 311 310 310 311 312
276 277 276 276 276 277 276 276 277 278 278 278 278 278 277 276 274 274 272 273 276 276 278 278 277 278 279 281 282 281 281 283 283 282 281 281 281 284 285 286 287 287 288 289 290 290 291 291 292 292 293 293 295 296 296 296 297 298 299 301 302 303 304 305 306 306 306 307 308 309 311 311 310 311
276 276 275 276 275 276 276 277 278 278 278 278 278 278 278 277 277 276 275 273 276 277 276 277 278 279 279 280 279 279 280 281 282 281 280 279 281 282 281 282 284 285 286 287 287 288 289 290 290 291 291 293 293 294 294 295 295 296 297 299 301 301 302 303 303 305 305 306 308 308 310 310 311 311
276 276 275 275 275 275 276 276 276 275 276 276 275 275 275 276 276 276 275 273 273 278 277 277 278 278 277 278 277 277 278 280 281 278 277 277 280 277 277 280 282 283 284 285 287 288 289 289 290 290 290 291 292 293 293 294 294 295 296 298 299 300 300 301 302 302 303 304 305 306 307 308 309 310
275 275 274 274 274 275 274 274 274 274 274 274 274 274 274 274 274 274 273 272 272 274 277 277 276 277 276 275 276 275 276 276 276 278 276 276 275 276 276 276 279 281 283 284 286 287 287 288 289 289 289 290 291 291 292 293 293 295 296 296 297 299 299 300 301 301 302 303 303 305 305 306 307 308
274 274 273 273 273 273 273 273 273 273 272 272 272 272 272 272 272 273 272 271 271 270 273 274 275 274 275 273 275 274 274 274 275 275 275 275 275 275 275 276 276 280 282 284 286 287 287 288 288 289 289 289 290 291 292 293 293 294 295 296 296 297 298 299 300 300 300 301 303 303 305 306 307 307
273 272 272 271 271 272 271 272 272 272 271 271 271 270 271 270 271 271 271 270 269 269 270 272 271 272 273 272 273 274 274 275 275 274 274 274 275 276 276 276 276 280 283 285 286 286 287 287 288 288 288 289 290 290 291 292 293 293 294 295 295 296 296 297 298 299 300 301 302 303 302 304 305 306
272 272 271 271 270 270 269 269 270 271 270 270 270 270 270 270 270 270 270 270 269 268 267 269 270 271 271 272 273 274 274 274 274 274 274 275 275 275 276 275 275 278 282 284 285 285 286 286 287 287 288 288 289 290 291 292 292 293 294 294 295 295 296 296 296 297 297 300 301 303 302 304 302 303
272 272 271 271 271 270 269 269 268 269 269 270 269 269 270 270 270 270 270 269 270 268 268 268 270 271 271 272 273 274 273 273 273 274 274 274 274 274 275 276 277 280 282 283 283 284 284 285 286 287 287 288 288 289 290 291 291 292 293 293 294 295 296 295 296 296 296 297 298 299 301 302 303 302
273 272 272 271 271 270 269 269 269 269 269 269 269 269 269 269 269 269 269 270 269 269 269 269 269 271 270 271 272 273 273 273 272 273 274 274 275 275 274 275 277 277 278 277 278 280 281 282 284 285 286 287 288 289 290 290 291 291 291 292 293 294 295 296 296 296 296 296 296 297 300 301 301 303
272 272 271 271 270 270 270 270 269 269 269 268 268 268 268 269 269 269 269 269 269 269 269 269 270 269 271 271 270 273 274 273 273 272 272 273 275 275 275 274 276 277 277 279 282 281 281 283 282 284 286 287 288 288 289 290 290 290 291 291 292 293 294 294 294 295 295 296 296 296 296 298 301 302
271 271 271 271 271 271 271 270 269 269 268 269 268 269 269 269 269 269 270 270 269 269 269 269 269 270 270 271 272 273 273 272 273 274 273 272 273 274 275 275 275 276 277 276 277 280 281 281 282 284 284 285 287 288 288 289 288 287 287 288 290 291 291 292 293 293 294 295 296 297 296 296 298 301
271 271 272 272 272 272 273 274 273 273 272 270 269 270 270 270 270 270 270 270 269 269 269 269 270 270 270 271 271 271 271 271 271 273 275 273 274 275 275 276 277 277 276 276 277 277 278 278 279 280 280 282 284 286 286 286 285 286 287 288 289 290 290 291 293 293 293 294 296 297 296 296 297 299
271 271 272 272 274 274 275 275 275 276 276 276 273 271 271 271 270 269 269 269 269 269 268 268 269 269 269 270 271 271 272 273 274 274 274 273 274 275 274 275 276 278 277 276 276 278 280 280 280 281 281 281 282 281 281 282 283 285 287 288 289 290 291 291 292 293 293 295 295 296 296 296 297 298
271 271 272 272 274 275 275 275 276 277 277 277 278 278 277 275 272 270 269 269 269 268 268 269 270 269 269 271 272 272 273 274 274 274 274 274 274 273 272 270 274 278 277 277 276 276 279 279 277 278 278 279 279 280 280 284 285 286 287 288 290 290 291 292 292 293 294 294 295 296 296 296 296 297
272 272 272 273 273 273 273 273 273 275 276 276 277 277 277 277 278 278 275 273 272 272 271 272 272 272 272 273 274 274 274 274 275 274 274 274 273 272 272 272 271 275 277 275 274 274 277 279 278 277 278 279 279 280 282 284 285 287 288 289 289 290 291 292 293 294 294 295 295 296 296 297 297 297
272 273 273 273 273 273 275 274 273 272 272 275 276 276 277 277 278 278 279 279 277 275 274 273 273 273 273 273 273 274 274 276 273 274 273 273 273 273 272 272 273 274 276 275 273 273 275 276 275 275 277 278 278 279 283 284 286 288 288 288 289 290 291 291 292 293 294 295 296 296 296 296 297 297
273 273 273 273 273 272 272 272 271 271 271 272 272 273 273 273 275 277 278 278 279 278 275 274 272 274 275 273 274 275 277 274 273 273 273 274 273 273 273 274 274 275 277 274 274 272 274 276 276 275 277 279 279 280 283 286 287 288 288 289 289 290 291 291 291 292 294 295 296 296 296 296 296 297
274 274 273 272 271 270 270 271 272 272 272 272 272 272 272 273 273 274 274 274 275 275 275 275 275 275 276 276 276 276 277 276 276 276 275 275 274 275 276 275 276 275 277 276 275 271 274 276 275 276 277 279 279 280 283 286 287 288 288 289 289 290 290 290 291 293 294 295 295 296 296 296 297 297
274 273 272 271 270 270 271 274 276 276 275 274 273 273 274 274 275 275 277 279 279 278 277 277 277 277 277 279 278 278 278 277 277 277 277 277 275 274 272 271 274 274 277 277 275 273 274 277 276 276 279 279 279 280 281 285 286 287 288 288 289 290 291 291 291 291 292 293 294 296 296 296 297 297
273 273 272 272 271 271 272 275 277 277 277 275 274 273 273 273 274 274 276 278 280 280 280 280 280 280 280 281 281 281 282 279 278 276 273 272 273 272 271 271 273 273 276 278 278 276 274 277 278 277 279 279 279 279 280 281 284 286 288 288 289 289 289 290 290 291 292 293 293 296 297 296 296 296
273 273 275 274 272 272 273 276 277 277 276 274 274 273 272 272 273 274 275 275 275 277 278 278 279 279 279 279 280 279 279 278 277 271 269 270 271 269 270 269 271 273 275 276 279 275 273 275 276 275 277 278 278 279 280 282 283 286 287 288 288 289 289 290 291 292 292 293 293 295 296 297 296 296
272 272 274 276 276 275 275 277 277 278 276 274 274 274 273 272 272 273 273 272 271 272 273 273 274 273 273 272 270 271 275 276 275 272 271 271 270 269 269 270 270 269 271 276 278 274 273 275 276 276 274 273 277 280 280 280 281 282 282 284 285 288 289 290 290 290 290 292 294 295 296 297 296 295
272 272 273 275 277 277 276 276 276 277 277 275 275 274 273 271 270 272 271 272 273 273 272 270 270 269 269 269 270 270 270 271 272 272 272 272 272 270 270 270 270 269 270 276 278 275 275 277 275 278 277 274 272 276 279 279 280 280 281 281 281 284 286 287 288 289 290 290 293 295 295 296 296 294
271 272 273 272 274 275 275 276 276 276 277 277 275 274 272 271 272 274 273 273 273 269 268 267 267 267 268 269 269 269 270 270 271 271 272 272 272 271 271 271 271 272 274 277 280 276 274 275 275 276 275 275 275 274 276 277 278 279 280 281 281 282 283 284 285 286 288 290 291 293 295 295 296 295
272 272 272 270 272 274 274 275 276 277 277 277 274 273 275 275 276 274 272 269 267 266 265 265 265 266 266 266 267 268 269 269 270 270 271 272 272 273 273 271 269 268 269 274 278 276 274 274 275 274 275 274 274 275 274 276 278 279 281 281 282 282 283 284 285 286 288 289 290 292 293 295 296 296
272 272 270 270 273 274 274 275 276 276 276 275 273 274 275 275 275 273 266 265 264 264 264 264 264 265 266 266 266 267 267 269 270 270 271 271 271 271 272 272 272 271 272 274 275 274 273 272 275 274 274 275 274 275 275 275 276 280 280 281 282 283 284 284 284 285 287 288 289 292 293 295 295 296
271 270 270 271 273 274 275 275 274 274 274 272 273 273 274 273 272 266 264 263 263 264 264 264 264 264 265 266 266 266 268 268 269 269 270 270 271 271 272 272 273 273 273 273 273 274 274 273 273 275 275 274 274 273 273 276 277 278 278 280 281 282 283 284 285 286 287 288 289 289 289 289 290 290
271 272 273 274 274 273 272 272 272 271 270 271 272 272 272 270 264 262 261 262 262 262 263 263 264 264 265 266 266 267 268 268 268 268 269 270 270 271 272 272 272 273 273 274 274 274 274 274 273 274 275 274 274 274 275 274 276 277 278 279 278 281 282 283 284 284 285 286 287 288 288 288 288 289
274 274 273 272 271 270 269 268 266 266 266 270 270 269 269 265 262 261 261 261 261 262 263 263 263 264 265 266 267 267 267 266 266 267 267 267 268 269 269 269 270 272 272 273 273 273 273 273 274 274 275 276 276 274 275 275 275 277 278 278 279 281 282 283 283 284 285 285 286 287 288 289 289 289
268 270 269 269 270 268 269 268 268 268 267 265 264 263 263 262 260 261 260 262 262 263 263 263 263 264 265 266 266 265 265 265 266 267 267 267 267 268 269 268 268 268 270 272 273 272 272 272 273 273 272 272 274 276 277 277 276 277 278 279 280 277 281 283 283 283 284 285 285 286 286 287 288 288
267 266 267 265 262 262 261 261 260 260 261 261 261 261 260 261 261 265 267 267 264 263 264 263 264 264 264 263 263 264 264 265 266 267 267 267 267 268 268 267 266 267 268 269 270 272 273 272 272 272 272 272 271 273 276 277 277 277 278 280 280 281 282 281 282 283 284 285 284 285 286 287 287 289
263 262 259 257 258 257 257 257 257 257 256 257 258 258 257 257 260 260 258 259 260 261 262 262 262 262 262 263 263 264 264 264 265 267 267 268 267 268 268 267 266 266 266 266 268 269 271 272 273 272 272 273 274 275 275 274 276 279 279 279 280 280 281 282 282 283 284 284 284 285 285 286 287 288
259 258 257 256 255 256 255 254 255 256 256 256 256 257 262 261 258 259 260 260 261 262 262 262 262 262 262 262 263 263 263 264 265 267 268 267 267 267 266 266 266 267 267 266 266 267 268 269 270 271 272 273 274 276 276 275 276 278 280 280 281 280 281 282 283 284 284 284 284 283 284 285 286 288
257 256 256 256 255 255 255 255 256 257 257 257 257 257 258 257 259 261 260 260 261 262 262 262 262 263 262 262 263 263 264 264 265 266 267 267 267 266 266 266 266 266 266 266 266 267 267 267 267 267 268 269 271 275 280 281 279 279 280 281 281 281 281 283 283 284 284 285 285 284 284 285 286 287
256 256 256 255 254 254 254 256 257 257 256 257 257 257 256 258 259 260 260 262 262 261 261 262 262 262 263 263 263 264 264 265 265 266 266 266 266 266 266 266 266 266 266 266 266 267 267 267 267 265 265 265 266 267 271 282 284 281 280 280 281 282 283 284 284 285 285 285 285 285 283 283 284 287
257 255 255 254 254 254 254 255 255 256 257 257 257 257 257 258 260 261 262 264 262 262 262 263 263 263 263 263 264 265 265 265 265 266 265 266 266 266 266 266 266 266 266 266 267 267 267 266 266 266 264 264 264 265 269 275 282 285 282 281 281 283 283 284 284 283 284 285 285 285 284 285 285 286
256 256 254 254 254 253 254 255 256 256 256 257 257 258 259 260 261 262 263 262 261 261 262 262 262 263 263 264 264 264 265 266 266 265 265 265 265 265 266 265 266 266 266 266 267 267 267 266 266 265 265 263 263 264 266 272 276 281 285 283 281 283 284 283 283 283 284 285 285 286 286 285 285 287
256 256 255 254 254 253 254 255 255 256 255 256 257 258 259 260 260 260 260 261 262 262 262 262 262 263 263 264 265 265 265 265 265 265 265 265 265 265 265 265 265 266 266 265 266 266 267 266 266 265 265 264 263 265 267 269 271 276 277 281 283 283 283 283 283 284 284 284 285 287 287 288 289 289
255 254 253 253 253 253 254 254 255 256 256 258 258 259 260 260 260 259 260 261 262 262 262 262 263 264 264 265 265 266 266 265 265 264 264 265 265 265 265 266 265 265 265 265 264 265 265 265 266 266 266 266 267 268 268 269 270 271 273 277 280 281 284 285 284 284 284 285 286 285 285 286 285 287
254 253 252 253 252 253 254 255 256 257 257 259 259 261 261 259 259 259 260 262 263 261 261 261 262 263 264 265 265 266 265 265 264 264 264 265 265 265 266 267 265 265 264 264 264 264 264 266 268 271 269 268 268 268 267 265 265 268 271 275 280 284 285 286 285 285 285 286 286 285 285 285 285 286
252 251 250 251 252 252 253 254 255 257 258 258 259 259 259 259 259 264 263 262 260 260 261 262 263 264 264 265 265 266 265 264 263 263 264 264 264 264 265 265 264 264 264 263 263 264 266 268 268 268 267 267 266 264 263 264 265 267 271 275 280 284 286 286 286 286 288 287 286 285 285 285 286 285
251 250 250 251 251 251 251 253 254 256 258 259 259 260 259 259 258 258 258 259 260 260 260 261 263 263 264 265 266 266 264 263 263 263 264 264 264 263 264 264 264 264 264 264 265 266 266 267 267 266 266 265 265 265 264 265 267 268 271 274 277 282 285 287 287 286 287 287 288 288 288 287 285 283
249 249 249 249 249 250 250 250 251 254 256 258 259 259 259 258 258 258 259 259 259 260 261 261 262 263 264 265 266 265 264 263 263 263 263 263 264 264 264 264 264 264 265 264 264 265 265 265 265 266 264 264 265 265 265 266 267 270 272 275 278 279 281 285 286 286 287 287 287 288 288 288 288 288
248 248 248 248 248 248 249 250 251 253 254 256 258 258 258 258 258 258 258 259 259 260 261 262 262 263 264 265 265 264 264 266 265 263 264 264 264 264 264 264 264 264 264 264 263 263 264 264 265 265 265 265 265 265 266 267 268 270 272 274 277 280 282 283 284 285 285 286 287 287 287 287 287 287
Wind_Speed
4 3 3 2 1 0 0 0 1 2 3 4 4 3 5 6 8 12 9 8 3 1 5 4 2 3 3 3 5 7 6 8 13 11 11 12 12 17 25 27 28 29 30 30 31 31 32 32 31 32 31 32 32 32 32 31 31 30 30 31 31 31 31 30 32 33 32 32 32 33 33 32 29 26
4 4 3 2 1 1 0 1 1 1 3 4 5 5 6 5 7 8 10 13 1 8 1 1 1 3 6 7 6 4 8 12 15 11 11 11 10 21 26 27 28 28 29 28 29 29 29 29 29 29 29 30 31 32 31 32 32 32 33 33 33 32 32 31 32 34 35 34 35 34 33 32 31 29
5 4 3 3 2 1 1 1 0 1 1 2 2 4 4 5 5 7 9 13 3 5 6 1 3 7 8 6 8 9 9 10 13 11 10 10 19 26 20 26 27 27 28 29 30 31 31 31 31 32 31 31 32 33 33 33 34 35 34 34 34 34 34 34 32 33 36 37 36 35 34 34 32 31
5 5 4 3 3 2 3 2 1 1 2 1 3 3 4 5 5 6 8 11 18 7 10 10 4 6 8 9 11 11 9 9 13 11 11 13 20 15 14 21 26 28 28 28 28 28 29 29 29 30 31 33 34 34 35 35 35 34 34 34 35 34 35 35 34 34 33 33 35 36 35 35 34 33
5 5 5 4 3 4 3 2 1 1 1 1 3 2 3 5 5 5 7 11 16 15 2 10 6 7 10 11 8 13 10 11 10 10 12 13 11 11 11 13 21 26 28 28 29 29 30 31 31 32 32 33 34 35 35 34 34 33 33 33 33 34 34 34 35 35 35 34 37 37 36 34 36 35
5 5 5 4 5 5 4 4 3 2 2 2 2 4 3 4 5 4 5 8 10 19 11 9 11 7 9 12 8 11 15 13 14 13 10 10 9 10 10 12 13 25 27 28 29 29 30 30 31 32 33 34 35 34 35 34 34 33 33 32 32 32 33 33 33 34 34 35 36 37 39 37 36 37
6 6 6 6 6 4 4 4 3 3 3 3 3 4 4 4 4 4 4 6 10 12 16 9 13 10 8 10 14 13 12 14 12 14 12 9 12 10 12 11 12 21 26 29 30 30 30 31 32 33 33 33 33 33 33 34 33 34 33 33 32 32 32 33 34 34 34 34 34 35 36 38 39 38
8 8 7 6 6 5 5 4 4 4 4 4 4 5 5 5 4 4 4 6 7 10 14 12 8 14 11 11 10 11 14 13 13 11 13 14 11 13 11 13 13 17 28 30 30 31 30 31 31 31 31 32 32 32 33 33 33 33 32 31 31 31 31 32 34 34 35 35 37 35 35 37 40 38
8 7 7 6 6 6 6 5 5 4 5 5 5 5 5 5 4 4 5 5 7 9 13 15 10 10 13 11 12 12 13 14 12 11 13 13 14 13 13 11 12 20 27 28 29 29 29 30 31 31 32 32 32 32 33 33 33 32 32 32 32 30 30 32 32 32 36 36 34 39 37 37 40 40
7 6 6 6 7 6 7 6 6 7 7 6 7 7 7 6 6 6 6 7 8 10 13 14 16 10 11 15 11 12 13 13 17 19 14 12 12 13 13 11 8 9 10 9 12 18 23 27 31 32 30 32 32 31 31 33 33 33 35 35 33 31 31 30 32 34 33 35 38 34 36 38 41 41
5 5 6 6 7 8 8 7 7 6 6 6 7 7 6 6 6 6 7 7 9 11 13 14 14 14 11 10 16 12 11 14 12 17 22 18 9 11 14 16 11 8 12 17 25 25 26 29 25 28 31 31 32 32 31 31 32 33 32 30 30 29 29 30 32 30 34 35 37 38 34 36 40 43
5 5 6 7 7 8 7 6 6 7 7 6 7 6 6 6 7 8 8 9 10 11 12 13 13 12 13 13 12 13 12 15 13 7 16 23 22 16 17 11 12 11 12 14 12 15 19 20 23 28 29 31 31 31 29 27 29 32 34 33 32 32 32 31 32 33 35 36 35 36 41 39 36 42
6 6 7 7 7 9 11 13 12 10 10 7 7 7 8 8 8 9 8 8 9 10 11 12 11 13 14 14 13 14 14 10 17 12 13 17 19 18 17 18 9 7 12 14 15 13 11 12 12 13 13 13 17 17 23 24 31 33 34 33 32 32 32 31 31 34 35 37 38 37 40 42 39 37
8 8 7 7 12 13 14 14 14 15 15 15 11 8 8 8 8 8 7 8 8 8 10 11 12 14 14 14 15 15 12 10 14 19 14 17 15 16 20 17 12 7 10 14 14 14 9 10 12 10 11 12 12 13 15 14 19 25 32 33 33 33 32 32 32 31 35 36 37 38 36 37 36 36
8 8 8 8 10 12 13 12 15 14 15 14 15 16 15 12 9 8 9 9 10 9 10 12 13 15 17 16 12 13 15 12 12 11 14 16 18 18 17 23 18 9 8 12 13 15 14 12 17 16 14 12 12 12 15 25 30 32 32 33 33 33 33 32 32 33 35 37 32 38 38 37 37 38
7 8 8 8 8 9 8 6 7 10 13 13 14 15 16 17 19 19 14 11 10 10 9 10 10 10 14 16 15 16 14 18 17 20 17 19 17 20 21 18 23 14 7 13 16 16 15 7 14 17 16 13 12 15 24 34 35 32 32 33 34 34 33 33 33 33 35 35 34 34 37 35 35 36
7 7 7 8 7 6 13 9 7 7 7 11 15 15 17 19 19 20 23 23 17 12 14 14 17 15 17 19 19 14 17 14 22 18 22 18 19 17 20 23 17 18 7 10 15 16 17 10 14 17 18 13 13 15 23 32 32 33 33 33 33 34 34 33 33 33 34 34 34 35 34 37 34 32
7 8 8 8 7 5 5 4 5 5 6 7 9 10 11 12 16 20 22 22 24 22 17 18 19 19 16 19 18 20 17 21 18 20 18 21 16 20 19 23 21 18 10 11 15 17 20 12 13 18 17 13 13 13 20 30 31 33 33 33 33 34 34 35 34 34 34 34 34 32 33 36 35 33
8 8 7 5 4 4 4 5 7 7 8 8 9 10 11 12 12 12 13 14 14 15 16 18 20 21 17 18 21 19 18 18 18 19 23 22 20 20 21 18 18 18 14 12 12 18 20 15 14 17 14 14 14 14 20 28 31 32 33 33 34 36 37 36 37 36 34 34 36 35 32 32 33 32
8 7 5 5 5 5 6 9 14 11 8 8 9 9 8 7 8 10 14 20 20 16 13 13 13 15 18 22 21 19 15 14 14 15 16 16 16 16 15 17 17 16 9 9 13 15 19 18 15 16 12 13 15 15 13 22 30 32 33 35 35 35 34 35 35 35 35 35 36 35 31 30 31 30
7 6 6 6 6 7 7 11 13 12 12 7 7 8 8 9 11 12 9 15 20 24 26 29 31 32 32 32 33 32 34 26 21 16 17 18 13 14 17 17 15 17 11 7 11 13 17 15 11 13 12 11 14 14 14 15 24 34 32 32 35 35 36 36 35 36 35 35 35 35 34 30 29 30
6 8 14 11 8 8 8 11 11 12 10 7 6 8 12 14 10 8 8 7 10 20 27 29 30 30 28 28 29 31 32 33 28 16 18 17 13 18 17 21 19 17 14 8 4 13 20 19 17 15 15 14 15 14 14 14 14 22 25 33 36 36 35 33 33 34 35 35 36 35 34 31 29 22
6 7 10 13 11 9 8 11 11 12 10 6 8 10 9 9 10 9 7 9 13 13 12 11 11 11 17 16 15 17 29 30 27 19 18 15 14 16 17 16 17 17 18 3 8 14 15 13 16 12 13 14 13 11 13 15 14 13 11 11 13 20 24 26 27 30 34 37 40 37 33 28 28 17
7 7 7 8 11 10 10 10 11 11 12 9 7 7 8 7 8 7 10 13 12 10 7 9 10 13 13 13 14 15 16 17 16 17 17 16 14 14 16 16 15 16 16 3 6 11 13 11 16 7 11 13 15 10 10 11 11 12 12 16 17 20 25 26 24 29 31 32 36 34 31 31 27 15
6 6 6 4 7 10 10 10 11 11 12 13 9 6 6 8 11 14 10 9 11 10 10 11 11 12 11 11 11 13 14 14 14 15 17 16 16 15 13 13 14 16 17 11 16 13 13 12 15 12 12 11 14 15 14 13 13 14 14 13 15 16 16 14 12 14 20 29 32 33 31 28 28 19
7 7 5 5 5 9 10 10 11 12 13 14 8 7 13 18 19 13 7 7 7 8 9 10 10 10 11 10 10 11 12 12 13 15 14 15 14 14 15 16 17 18 21 13 22 15 14 15 13 13 14 12 15 13 17 16 13 14 12 13 14 15 15 14 13 13 13 13 13 17 22 28 26 25
7 5 6 4 8 9 8 10 11 11 12 10 8 13 15 15 17 12 6 7 8 8 9 10 10 10 10 10 11 11 11 12 11 13 12 12 13 14 14 18 17 20 18 15 10 13 15 16 16 15 17 14 15 16 15 16 13 9 12 13 13 13 14 12 14 14 13 13 13 20 23 22 24 23
6 5 5 5 9 9 9 8 8 9 8 7 11 13 13 14 12 6 7 6 8 9 9 10 10 10 9 10 11 11 11 12 13 14 14 14 14 15 15 16 17 17 17 18 16 15 15 16 18 16 18 18 17 15 20 17 13 14 16 15 14 15 14 12 13 12 12 11 11 11 10 10 11 12
6 7 10 9 5 3 2 4 5 5 7 10 11 11 11 9 4 6 6 7 8 9 9 9 10 10 10 10 12 12 13 14 14 14 13 13 14 14 17 18 17 17 14 13 14 14 16 16 19 16 15 17 17 19 19 24 18 15 15 15 15 13 13 13 14 14 15 14 12 12 12 11 12 11
11 9 7 7 6 5 2 1 0 1 4 8 9 9 8 4 5 5 6 7 8 9 9 10 10 11 10 11 11 13 13 12 12 13 14 13 13 12 13 14 12 13 14 15 15 16 17 17 20 18 17 18 18 21 21 19 18 19 16 17 19 17 15 12 13 11 14 14 14 13 12 12 14 13
7 7 7 5 6 4 1 1 3 4 5 5 5 4 5 5 5 6 5 8 8 9 9 10 10 10 11 11 12 12 11 12 12 12 14 14 14 13 12 13 14 12 11 12 13 15 18 18 18 18 20 20 19 21 20 17 20 19 17 16 17 17 14 12 13 13 15 15 15 15 14 14 14 15
6 6 7 7 4 4 4 2 2 3 3 4 4 5 5 5 5 8 12 12 8 9 9 10 10 11 10 11 11 12 12 12 13 13 13 13 15 13 13 12 14 13 13 11 11 14 17 18 19 18 18 17 21 21 19 17 20 17 16 17 16 20 17 16 15 14 14 14 14 15 15 13 13 13
7 6 6 4 4 3 1 1 2 3 3 5 5 5 5 5 5 5 5 7 8 9 8 9 10 11 11 11 11 11 12 13 13 13 13 14 14 15 12 15 14 14 15 14 11 11 11 14 16 20 19 19 21 20 20 20 21 17 18 18 15 17 14 15 13 16 14 13 14 14 14 14 13 14
7 5 6 5 4 2 2 2 3 4 3 4 5 5 5 4 5 7 6 7 8 8 9 9 10 11 11 12 11 12 13 14 13 13 14 15 14 14 14 13 14 13 13 15 12 11 11 12 12 16 18 21 21 21 23 23 23 16 17 15 15 18 15 16 14 17 15 14 14 15 15 15 14 13
7 6 7 5 3 2 3 3 4 3 4 5 4 5 5 4 6 7 7 8 7 8 9 10 10 10 11 12 12 13 13 14 15 13 12 12 14 14 15 15 14 13 13 14 13 11 11 13 13 16 17 16 17 17 23 23 20 17 15 15 15 17 18 16 16 16 16 14 13 15 15 15 15 13
6 7 7 6 4 4 3 4 3 4 5 6 5 5 4 6 6 6 7 8 7 8 9 10 10 10 11 11 12 13 13 15 14 14 14 14 14 15 14 15 16 16 14 14 14 12 11 13 12 15 18 18 17 19 17 20 25 18 17 16 16 18 18 17 17 15 14 14 14 14 14 17 16 16
8 6 7 6 5 4 5 4 5 5 5 6 5 5 5 6 7 7 8 9 8 9 10 10 10 10 11 12 13 13 13 13 13 12 13 12 13 14 15 16 15 15 16 15 13 14 12 13 12 13 15 18 18 19 19 14 20 26 21 19 19 18 18 16 15 15 15 15 14 14 15 15 16 17
8 7 7 6 5 5 4 5 4 5 5 5 5 5 6 6 6 7 8 8 9 9 9 9 10 11 11 11 12 13 12 11 11 13 13 13 13 13 12 14 13 12 16 16 13 13 12 13 13 13 13 17 19 19 19 16 14 16 25 24 20 18 17 16 16 16 16 14 15 15 14 15 17 18
8 8 7 7 5 4 5 5 5 5 5 4 4 5 6 6 6 7 8 8 9 9 9 9 10 10 11 12 12 11 11 12 13 13 14 14 13 15 14 14 15 15 15 16 14 13 12 13 13 13 13 16 19 18 16 17 19 15 17 24 18 17 17 16 16 16 15 14 14 13 13 15 17 23
6 6 6 5 4 4 5 4 5 5 5 5 5 5 5 6 6 7 8 9 8 8 9 10 11 12 10 10 11 11 12 13 14 15 15 15 15 16 15 15 14 15 14 14 15 14 13 14 14 13 14 16 17 17 17 20 20 21 22 26 31 24 18 15 16 15 14 14 12 11 13 12 13 13
7 6 4 4 4 4 5 5 5 5 5 5 5 5 5 5 7 8 8 8 8 9 9 10 10 10 11 12 12 12 13 14 13 13 14 16 16 17 18 20 14 13 14 18 14 16 14 13 16 28 26 19 18 17 18 20 20 18 17 21 25 28 30 26 19 15 15 13 11 13 13 13 12 12
7 7 5 3 5 5 5 5 5 4 4 4 4 5 5 6 7 12 11 12 10 10 9 10 10 10 10 11 12 12 12 14 14 16 16 17 17 18 18 14 14 15 15 17 15 15 17 17 17 17 16 16 15 16 20 19 20 18 18 18 16 19 23 28 32 29 21 13 11 12 11 11 10 11
5 5 5 4 4 5 5 5 4 4 4 4 4 5 6 7 7 9 8 9 9 9 9 10 10 10 11 12 12 11 11 14 14 18 15 16 16 17 15 13 13 15 16 16 16 15 13 14 15 15 14 14 16 16 19 19 18 18 18 16 17 15 13 20 28 31 32 31 25 19 14 12 9 12
5 5 4 4 5 5 5 5 4 4 4 4 5 5 6 7 8 9 9 9 9 10 10 10 10 11 12 13 12 10 11 13 14 16 16 17 15 16 15 16 16 16 14 15 15 14 13 15 14 13 15 16 15 16 19 19 20 19 17 16 15 15 16 12 12 19 25 29 32 30 29 26 21 20
6 5 5 5 6 5 5 4 3 4 4 5 5 6 6 6 8 8 9 9 10 10 11 11 11 11 12 12 11 11 13 16 18 15 16 15 14 16 15 17 15 17 14 14 15 16 12 15 14 13 15 17 15 16 18 19 19 18 18 18 18 16 14 13 13 13 13 14 21 29 29 28 28 29
Wind_Direction
137 132 143 152 151 135 142 238 270 265 282 277 271 266 274 296 292 317 303 313 318 302 24 351 306 100 66 40 358 336 327 326 322 315 308 304 304 308 310 310 310 309 307 305 303 302 300 297 295 294 292 291 288 286 286 286 287 286 287 285 283 283 283 282 284 277 277 276 276 274 273 275 277 278
131 130 120 139 138 141 120 219 260 262 264 268 274 266 270 261 270 287 298 297 181 285 49 148 285 10 356 339 334 351 322 319 312 301 301 304 303 308 309 309 307 305 304 304 305 303 300 298 295 295 294 294 293 291 289 286 284 284 285 282 280 280 279 279 279 277 273 271 272 272 271 270 271 272
131 135 140 139 139 133 120 84 342 308 302 306 302 291 277 264 262 278 290 295 284 100 309 69 8 332 326 343 335 327 319 314 311 311 312 316 316 314 311 308 306 305 303 301 300 299 296 294 294 293 292 292 291 290 289 287 285 282 280 280 278 276 275 273 272 273 272 272 270 270 272 270 268 268
139 141 144 147 133 117 105 113 71 22 341 337 309 314 306 295 296 301 288 276 279 282 296 301 317 327 341 334 328 319 315 315 323 322 319 315 314 310 305 304 303 300 299 297 296 296 296 296 294 292 292 291 290 288 287 285 283 281 280 277 275 273 272 270 268 267 268 273 275 272 267 268 270 268
139 142 138 138 130 124 131 139 129 174 260 314 294 292 296 285 288 289 281 282 287 291 234 300 327 338 336 319 330 313 316 314 312 307 305 304 299 297 294 296 298 299 298 298 298 297 296 295 292 291 290 290 289 288 286 284 283 281 279 277 276 274 270 268 267 265 263 263 265 269 269 265 264 266
143 144 143 151 148 149 144 154 160 186 200 259 264 274 271 269 278 274 292 281 283 292 309 309 310 332 331 309 325 316 314 308 306 302 298 295 291 294 294 290 289 293 293 294 295 294 293 293 292 291 292 291 290 288 287 285 283 281 279 277 276 274 272 269 267 266 263 261 259 261 266 265 262 261
153 153 162 168 154 151 150 170 168 177 203 214 231 251 255 261 265 276 276 289 287 288 295 315 310 319 324 311 313 310 301 300 301 301 298 293 296 288 288 289 287 292 294 295 294 294 294 292 291 290 291 290 290 288 285 284 283 281 279 277 275 274 272 271 269 266 264 260 258 256 260 266 263 263
165 167 167 174 158 156 157 171 171 189 184 212 227 231 249 252 264 277 270 274 279 296 296 303 311 308 312 304 298 300 298 300 301 295 295 296 286 289 285 282 284 288 290 291 292 294 294 291 289 289 288 289 290 287 286 285 283 281 279 277 275 273 272 269 266 265 266 263 259 258 255 259 260 259
166 170 174 165 155 157 167 183 178 192 190 208 211 227 231 240 259 262 273 276 277 284 285 293 294 298 296 293 294 296 303 305 296 292 295 296 294 288 275 273 278 283 288 291 291 289 289 290 288 287 287 287 286 285 284 284 284 283 281 279 277 275 273 271 271 269 264 263 264 259 256 255 259 256
165 163 160 159 160 170 177 189 188 192 199 203 214 228 232 235 242 254 260 263 265 269 274 282 293 288 293 299 284 295 301 302 306 305 291 283 287 288 291 283 282 287 284 284 284 285 283 282 283 284 285 284 284 283 283 283 282 282 280 278 277 275 273 273 272 270 268 265 261 263 261 253 252 257
146 159 160 165 173 183 190 188 193 195 197 201 210 212 220 228 234 247 253 252 259 263 273 277 276 286 283 279 295 297 286 289 286 298 304 297 287 284 293 297 290 276 275 275 284 286 286 283 282 282 283 282 282 282 283 281 279 278 283 288 286 287 281 276 274 273 272 265 263 260 258 259 253 252
159 165 170 178 188 191 200 192 197 193 198 201 209 216 210 224 238 247 252 253 256 261 263 266 279 277 283 286 273 280 287 289 279 258 292 296 307 305 293 273 285 293 289 288 282 273 273 274 274 277 275 273 276 279 278 283 288 289 289 286 283 281 279 277 274 272 270 266 260 258 257 255 255 252
169 178 188 195 198 201 206 213 212 208 206 200 206 211 210 224 234 241 244 241 249 254 256 266 267 275 277 273 280 285 283 272 282 285 290 281 291 294 296 295 275 262 281 285 285 280 264 268 272 273 273 269 271 279 286 287 283 282 283 281 278 278 277 275 273 271 270 267 262 257 256 252 250 250
185 189 192 199 204 211 216 220 222 224 226 221 210 201 213 219 223 226 232 241 238 242 253 255 265 269 265 267 273 275 265 268 284 288 284 283 292 296 293 287 286 291 288 285 283 286 287 282 278 277 283 286 284 283 282 270 273 276 278 277 276 275 275 274 273 272 272 269 265 257 254 250 248 246
183 190 195 198 213 219 222 223 227 232 236 243 248 247 238 221 210 210 234 236 233 239 251 256 257 260 268 271 268 268 281 276 278 280 291 293 297 297 300 300 299 280 288 291 299 297 289 284 285 279 270 270 271 268 269 274 275 277 277 277 276 277 277 277 275 273 271 269 267 261 254 252 246 246
183 191 198 203 203 212 206 197 220 233 239 245 250 254 257 260 260 259 258 265 262 251 253 262 257 268 275 284 286 288 292 294 294 291 289 290 289 291 289 284 286 294 303 292 289 285 281 270 277 282 276 271 268 273 276 276 275 274 277 277 277 276 276 275 275 273 272 270 268 264 257 249 244 241
190 196 198 199 205 202 214 217 206 198 220 240 250 256 261 264 263 265 266 266 270 280 278 277 277 270 279 283 283 282 286 288 289 289 288 283 283 278 279 277 281 280 273 278 281 282 280 275 275 273 275 271 267 272 271 271 271 276 277 278 275 276 276 276 277 276 274 272 269 265 259 249 244 241
197 202 202 201 206 189 195 205 210 222 227 230 239 248 252 251 253 256 263 268 271 273 274 275 275 274 266 269 275 279 281 284 282 286 282 282 277 275 268 272 271 271 264 259 278 278 275 270 268 270 275 269 263 264 268 272 273 276 277 276 275 275 276 277 277 276 273 272 270 265 260 249 241 240
201 206 202 201 198 197 207 208 220 224 230 234 240 244 246 244 242 246 246 245 245 249 254 260 266 273 271 271 275 278 276 271 269 274 276 278 278 278 278 273 264 268 259 249 252 268 275 274 267 268 272 272 267 264 270 271 273 276 276 276 275 274 274 275 274 273 273 271 268 264 261 254 246 241
194 192 197 197 207 210 212 230 245 252 248 240 242 249 248 251 256 254 256 258 261 263 263 266 272 278 280 281 280 281 280 279 280 276 276 275 272 273 274 272 278 273 254 223 243 258 266 270 270 274 269 269 272 269 266 271 275 275 276 276 272 270 271 272 273 272 271 270 268 264 257 253 250 248
187 194 199 202 209 221 221 237 254 257 263 265 269 269 271 268 264 262 258 268 280 285 286 286 285 285 284 285 285 285 287 288 292 299 295 286 292 290 285 281 280 275 279 239 236 252 266 271 276 283 277 271 272 274 272 269 268 270 271 269 268 270 270 270 270 270 269 266 266 263 259 252 250 249
188 203 212 214 214 223 231 243 254 261 269 268 271 277 270 266 263 267 276 285 284 285 284 282 281 282 285 292 295 295 293 291 291 287 279 283 292 280 278 280 281 285 278 242 255 288 275 286 281 281 279 273 261 265 265 260 257 263 265 264 266 266 267 270 272 273 273 270 267 264 258 256 251 249
190 208 223 231 231 229 235 253 262 266 269 270 263 262 269 277 279 283 292 288 287 277 270 273 286 295 297 298 294 289 288 285 283 278 276 282 274 274 275 274 281 282 275 191 199 247 264 267 267 263 278 274 268 250 265 262 260 259 259 265 270 274 277 278 279 280 281 279 271 263 258 253 250 246
198 200 215 227 227 238 254 262 263 265 267 265 267 277 280 280 282 293 284 269 269 283 295 296 294 291 293 288 282 278 280 278 273 271 270 271 267 258 261 262 260 264 269 213 205 254 266 267 275 256 273 291 289 281 268 275 275 278 278 278 277 272 270 268 269 272 273 276 273 257 251 250 240 241
193 204 192 153 221 245 251 255 260 264 268 277 284 282 283 282 282 285 280 295 320 310 301 294 292 288 282 278 276 280 283 283 281 278 273 270 271 278 285 282 274 268 269 266 263 253 266 259 263 268 256 251 268 280 273 267 262 263 263 262 266 268 267 267 266 267 270 266 262 258 250 244 237 233
191 180 159 136 217 241 249 255 260 268 280 286 288 291 285 284 289 296 311 322 311 301 294 290 282 281 281 279 279 277 276 274 274 276 272 271 271 269 269 273 279 283 282 296 300 297 293 279 269 270 261 258 262 256 274 270 260 261 260 256 255 260 262 265 263 262 258 250 251 251 250 246 244 244
167 146 141 160 228 238 246 255 269 282 288 296 290 285 286 291 298 309 337 315 303 291 286 281 279 279 279 285 287 288 288 289 285 285 280 279 274 271 270 268 270 274 283 291 279 279 280 278 275 272 275 269 266 268 261 266 268 261 260 254 254 254 258 258 259 261 255 247 244 242 244 246 249 249
155 143 151 185 219 235 254 274 287 290 292 289 284 286 294 302 311 328 313 298 285 284 282 278 279 280 282 284 287 291 293 293 290 285 281 275 271 269 269 265 262 264 270 275 276 271 268 270 275 265 265 272 273 267 270 264 258 264 267 262 260 261 260 255 258 258 259 257 257 253 250 252 249 256
140 169 199 209 217 233 315 299 303 312 297 286 283 294 302 310 332 309 286 282 281 281 278 280 281 282 281 285 287 290 292 291 288 282 278 273 270 268 268 266 262 261 262 264 267 268 266 266 268 269 263 261 260 263 263 269 270 264 258 269 266 251 248 250 250 252 256 257 255 249 247 245 251 247
173 173 131 110 84 70 47 43 20 220 258 279 296 307 315 316 294 277 277 278 280 276 282 282 284 286 290 291 290 291 291 291 288 288 284 285 281 278 276 275 267 261 263 265 268 271 274 274 276 278 275 263 253 253 255 258 261 257 256 255 260 267 257 247 245 244 246 248 244 245 244 244 247 251
120 113 96 87 93 87 71 9 294 294 302 312 304 290 282 272 266 272 263 264 270 281 283 285 285 288 289 291 293 293 295 291 288 284 284 286 287 286 280 274 276 272 256 252 259 270 273 270 269 268 268 272 270 264 263 259 260 256 250 248 251 254 253 244 239 240 241 243 248 248 249 248 248 242
118 100 91 80 70 65 39 15 349 300 278 272 271 272 264 266 267 271 285 291 284 278 278 282 288 289 293 294 293 294 293 290 287 285 285 289 290 286 283 278 275 277 277 263 258 258 263 267 270 268 264 264 267 266 263 258 255 253 251 246 246 252 253 250 248 243 233 234 241 243 242 238 240 240
100 96 92 90 74 77 94 220 246 262 272 270 261 261 267 264 266 275 268 265 272 278 286 289 291 292 293 291 292 292 291 289 287 286 287 285 286 287 279 276 278 282 285 284 275 269 262 267 268 273 275 271 266 265 263 260 252 245 248 247 242 247 247 241 241 245 236 233 234 238 244 240 238 244
113 110 119 124 127 128 163 203 235 239 244 254 265 264 275 282 284 272 267 270 277 284 284 287 291 291 293 293 294 293 290 290 286 284 288 292 290 287 284 278 276 274 276 281 281 278 279 273 274 275 273 270 263 256 258 257 255 247 243 241 237 243 242 244 238 236 234 229 233 240 244 247 244 239
123 133 133 140 143 185 183 209 223 238 240 261 268 280 282 277 276 279 277 277 277 282 286 287 285 284 289 290 293 293 291 290 290 291 288 286 289 285 284 282 281 280 279 280 282 283 282 286 291 291 287 285 283 267 245 241 249 243 243 239 235 236 241 238 237 235 230 230 225 237 244 250 251 242
127 134 139 145 178 182 192 224 225 237 239 249 251 260 282 283 271 271 276 278 281 284 285 285 284 285 287 290 289 290 290 290 290 293 297 297 294 289 283 279 282 283 280 280 284 283 284 286 290 291 294 295 291 287 284 245 232 235 238 239 236 237 239 237 236 235 230 227 223 225 235 242 250 249
137 144 145 155 174 179 199 216 219 233 235 237 245 247 250 266 276 274 278 285 285 279 278 280 283 289 290 290 292 290 290 291 292 296 295 294 290 289 288 286 282 283 282 280 279 282 283 282 279 282 288 287 283 280 277 288 257 233 227 235 237 237 235 234 234 236 230 227 226 221 230 238 245 250
146 145 153 166 180 195 205 213 222 235 240 242 239 254 257 258 270 279 284 287 282 279 279 280 284 290 290 291 294 295 292 286 287 291 291 293 292 288 283 285 288 284 284 282 281 279 276 274 275 276 276 276 280 277 284 284 275 255 226 228 236 236 232 231 231 231 234 222 226 227 226 235 241 245
139 150 158 167 187 191 209 223 218 231 241 244 252 250 260 268 272 281 285 279 281 280 287 292 290 288 291 296 293 289 293 299 299 296 295 293 289 291 289 287 285 287 285 285 282 278 276 273 272 271 269 269 267 274 282 284 282 298 303 285 268 252 238 231 232 231 232 229 225 228 228 235 245 249
142 139 155 157 187 199 219 229 233 233 238 247 246 257 260 276 279 279 282 282 277 287 292 291 294 297 291 290 293 290 286 289 297 297 296 295 294 291 287 286 288 293 289 284 286 281 277 275 272 267 267 264 268 274 278 279 285 288 282 274 262 255 253 240 235 230 232 227 227 225 231 229 235 246
140 150 177 173 191 212 219 233 229 239 247 252 260 269 279 275 281 277 268 282 296 298 295 291 290 291 297 298 294 296 299 302 299 295 295 294 292 294 295 298 290 285 283 285 281 281 279 278 275 279 277 275 272 274 270 265 263 261 263 263 264 252 240 234 235 231 234 226 216 223 232 231 234 243
151 158 170 182 198 225 220 234 245 238 251 257 269 275 278 281 266 290 298 300 292 285 289 292 295 298 299 298 297 297 299 303 303 301 300 298 298 296 292 290 288 291 287 286 289 286 290 288 281 279 271 268 264 261 259 258 263 265 264 269 268 255 242 231 227 228 230 228 220 226 229 237 230 243
144 148 171 205 214 227 231 235 244 247 260 267 278 279 279 281 282 288 287 288 290 291 290 292 294 296 297 297 296 296 300 302 302 301 297 298 298 298 298 293 288 288 288 287 284 286 288 290 291 284 276 260 255 253 260 260 260 260 264 264 264 266 257 236 230 229 230 232 229 226 225 226 227 237
151 160 197 204 216 231 236 238 246 255 263 272 274 274 276 279 285 287 287 288 291 292 291 292 294 297 297 296 291 292 297 300 300 303 301 300 296 295 293 295 293 293 291 289 290 290 294 293 289 285 280 270 261 260 259 262 260 260 261 261 260 258 255 255 246 240 236 235 234 232 231 230 232 241
160 174 191 214 220 234 241 245 250 262 268 270 271 273 278 282 281 284 283 283 286 288 292 293 297 297 297 293 295 300 303 306 306 300 297 296 295 297 294 296 295 297 293 294 296 297 296 295 293 286 271 266 261 255 259 256 260 262 263 263 265 258 254 250 246 239 233 240 234 231 234 233 234 236